Regional Weather Roundup
Issued by NWS Shreveport, LA

Current Version | Previous Version | Text Only | Print | Product List | Glossary On
Versions: 1 2 3 4 5 6 7 8 9 10 11 12 13 14 15 16 17 18 19 20 21 22 23 24 25 26 27 28 29 30 31 32 33 34 35 36 37 38 39 40 41 42 43 44 45 46 47 48 49 50
000 ASUS44 KSHV 050410 RWRSHV THE FOUR STATE AREA WEATHER ROUNDUP NATIONAL WEATHER SERVICE SHREVEPORT LA 1000 PM CST THU MAR 04 2021 NOTE: "FAIR" INDICATES FEW OR NO CLOUDS BELOW 12000 FEET WITH NO SIGNIFICANT WEATHER AND/OR OBSTRUCTIONS TO VISIBILITY. !LAZ001-LAZ014-TXZ097-050500 SHREVEPORT...MONROE...TEXARKANA RADIOS CITY SKY/WX TMP DP RH WIND PRES REMARKS SHREVEPORT MOCLDY 52 41 66 S3 30.02F MONROE CLEAR 51 44 77 CALM 30.08R NATCHITOCHES PTCLDY 50 44 79 CALM 30.05S TEXARKANA CLOUDY 59 38 45 E7 29.99F $$ !LAZ001-LAZ014-TXZ097-050500 OTHER LOCATIONS... CITY SKY/WX TMP DP RH WIND PRES REMARKS DOWNTOWN SHV MOCLDY 54 41 61 E8 30.01F BOSSIER CITY CLOUDY 51 43 74 SE5 30.01F RUSTON CLEAR 47 39 72 CALM 30.09F LITTLE ROCK PTCLDY 53 40 61 CALM 30.08F EL DORADO MOCLDY 55 39 54 SE3 30.07R JACKSON CLEAR 48 41 76 CALM 30.08S NEW ORLEANS MOCLDY 56 47 71 SW6 30.09S HOUSTON MOCLDY 52 48 86 SE3 30.04S LUFKIN PTCLDY 56 45 66 SE10 30.01F TYLER MOCLDY 60 38 43 SE6 29.99S DAL FT WORTH PTCLDY 60 40 47 SE12 29.92S $$ !TXZ136-TXZ165-050500 TYLER...LUFKIN RADIOS CITY SKY/WX TMP DP RH WIND PRES REMARKS TYLER MOCLDY 60 38 43 SE6 29.99S GILMER MOCLDY 57 39 50 E8 30.00F LONGVIEW PTCLDY 59 40 49 CALM 30.02R LUFKIN PTCLDY 56 45 66 SE10 30.01F $$ !TXZ136-TXZ165-050500 OTHER LOCATIONS... CITY SKY/WX TMP DP RH WIND PRES REMARKS NACOGDOCHES PTCLDY 58 42 55 S9 30.02F BEAUMONT PTCLDY 52 50 93 CALM 30.06R HOUSTON MOCLDY 52 48 86 SE3 30.04S COLLEGE STN PTCLDY 59 45 59 S16 30.00S AUSTIN PTCLDY 60 50 69 S10 29.98S DAL FT WORTH PTCLDY 60 40 47 SE12 29.92S TEXARKANA CLOUDY 59 38 45 E7 29.99F SHREVEPORT MOCLDY 52 41 66 S3 30.02F FORT POLK MOCLDY 53 42 65 SE5 30.06F LAKE CHARLES PTCLDY 52 48 86 SE6 30.05F $$

USA.gov is the U.S. government's official web portal to all federal, state and local government web resources and services.